User: anonymous   Login
Location: Clinton NY
(43.0598°N, 75.3602°W)
Time: 13:01:53
(UTC-04:00)
Language:

Iridium 11 - Orbit

View from above orbital plane
View from above orbital plane
View from above satellite
View from above satellite

Ground track
Ground track

The orbit data is extracted from the following two-line orbital elements,

1 25578U 98074B   16182.54809178  .00000100  00000-0  28817-4 0  9996
2 25578  86.3951  42.6140 0002204  82.7562 289.6519 14.34217690927001
Epoch (UTC): 30 June 2016 13:09:15
Eccentricity: 0.0002204
inclination: 86.3951°
perigee height: 776 km
apogee height: 779 km
right ascension of ascending node: 42.6140°
argument of perigee: 82.7562°
revolutions per day: 14.34217690
mean anomaly at epoch: 289.6519°
orbit number at epoch: 92700

The dashed part of the orbit path shows where the satellite is in the earth's shadow,  

DLR